Location: Saluda
(35.2377°N, 82.3468°W)
Time: 15:13:37
(UTC+00:00)

Vanguard 2 - Visible Passes

Search period start: 03 October 2022 00:00
Search period end: 13 October 2022 00:00
Orbit: 552 x 2935 km, 32.9° (Epoch: 02 October)

Date Brightness Start Highest point End Pass type
(mag) Time Alt. Az. Time Alt. Az. Time Alt. Az.
03 Oct 11.2 01:15:37 10° W 01:30:32 35° SW 01:41:55 14° SSE visible
03 Oct 10.9 23:20:02 10° W 23:36:26 58° SSW 23:52:41 10° SE visible
04 Oct 11.4 01:34:01 10° W 01:47:20 27° SW 01:58:43 11° S visible
04 Oct 11.1 23:37:38 10° W 23:53:36 49° SSW 00:09:20 10° SE visible
05 Oct 11.5 01:53:08 10° W 02:04:05 20° SW 02:14:00 10° S visible
05 Oct 11.3 23:55:24 10° W 00:10:40 41° SW 00:25:42 10° SSE visible
06 Oct 11.7 02:13:51 10° WSW 02:20:49 14° SW 02:27:24 10° SSW visible
07 Oct 11.5 00:13:26 10° W 00:27:39 33° SW 00:41:40 10° SSE visible
08 Oct 11.7 00:31:54 10° W 00:44:35 26° SW 00:57:07 10° S visible
09 Oct 11.8 00:51:12 10° W 01:01:31 19° SW 01:11:45 10° S visible
10 Oct 12.0 01:12:31 10° WSW 01:18:28 12° SW 01:24:23 10° SSW visible
10 Oct 11.8 23:12:10 10° W 23:24:49 30° SW 23:38:56 10° SSE visible
11 Oct 11.9 23:30:48 10° W 23:41:55 23° SW 23:54:06 10° S visible
